Location: ??
(35.1714°N, 128.2806°E)
Time: 15:13:24
(UTC+00:00)

Cosmos 2084 - Pass Details

Date: 29 October 2020
Orbit: 563 x 619 km, 62.8° (Epoch: 30 November)

Event Time Altitude Azimuth Distance (km) Brightness Sun altitude
Exits shadow 19:57:33 42° 350° (N) 841 4.1 -22.7°
Drops below altitude 10° 20:00:49 10° 22° (NNE) 1,929 6.3 -22.0°
Sets 20:03:09 0° 28° (NNE) 2,845 7.3 -21.6°
